Retour au catalogue

STARLINK-11448

ActifCommunicationsVLEO
NORAD 63005·PAYLOAD·🇺🇸 United States

Lancé Feb 15, 2025 depuis Cape Canaveral Space Force Station

Loading…

Prochains Passages (prochaines 24 heures)

TLE

FraisSource: CelesTrak SupGP

Époque: Sep 15, 2026, 02:11 UTC

1 63005C 25032A   26258.09145833  .00081573  00000+0  63341-3 0  2583
2 63005  43.0003 133.3269 0001681 274.2592 166.3470 15.70804003    16

Suivez STARLINK-11448 en temps réel avec AllMySat

Download on the App Store